This is the latest recevied weather packets stored in our database for station/object KI5RKU-09. If no packets are shown the sender has not sent any weather packets the latest 10 day(s).
| Time | Temp. | Humidity | Pressure | Rain* | Wind** | Luminosity | Snow |
|---|---|---|---|---|---|---|---|
| 1777208728 | 22.22° C | 88% | 1010.4 hPa | 0 mm | - | 25 W/m² | - |
| 1777208129 | 22.22° C | 88% | 1010.2 hPa | 0 mm | - | 9 W/m² | - |
| 1777206926 | 22.22° C | 88% | 1009.8 hPa | 0 mm | - | 0 W/m² | - |
| 1777205430 | 22.22° C | 88% | 1008.8 hPa | 0 mm | - | 0 W/m² | - |
| 1777203628 | 22.22° C | 88% | 1008.3 hPa | 0 mm | - | 0 W/m² | - |
| 1777203045 | 22.22° C | 88% | 1008.1 hPa | 0 mm | - | 0 W/m² | - |
| 1777202727 | 22.22° C | 88% | 1008 hPa | 0 mm | - | 0 W/m² | - |
| 1777201828 | 22.22° C | 87% | 1007.9 hPa | 0 mm | - | 0 W/m² | - |
| 1777201241 | 22.22° C | 87% | 1008.2 hPa | 0 mm | - | 0 W/m² | - |
| 1777200368 | 22.22° C | 86% | 1008.4 hPa | 0 mm | - | 0 W/m² | - |
| 1777199731 | 22.22° C | 85% | 1008.4 hPa | 0 mm | - | 0 W/m² | - |
| 1777187740 | 25° C | 78% | 1006.5 hPa | 0 mm | - | 0 W/m² | - |
| 1777183529 | 26.11° C | 68% | 1006.5 hPa | 0 mm | - | 0 W/m² | - |
| 1777181728 | 26.11° C | 72% | 1006.8 hPa | 0 mm | - | 0 W/m² | - |
| 1777180552 | 26.67° C | 70% | 1006.7 hPa | 0 mm | - | 0 W/m² | - |
| 1777177838 | 26.11° C | 72% | 1007.2 hPa | 0 mm | - | 0 W/m² | - |
| 1777177229 | 26.11° C | 72% | 1007.4 hPa | 0 mm | - | 0 W/m² | - |
| 1777176946 | 26.11° C | 72% | 1007.2 hPa | 0 mm | - | 0 W/m² | - |
| 1777176630 | 26.11° C | 72% | 1007.7 hPa | 0 mm | - | 0 W/m² | - |
| 1777175149 | 26.11° C | 72% | 1008.1 hPa | 0 mm | - | 0 W/m² | - |
| 1777174828 | 26.11° C | 72% | 1008.2 hPa | 0 mm | - | 0 W/m² | - |
| 1777174528 | 26.11° C | 72% | 1008.4 hPa | 0 mm | - | 0 W/m² | - |
| 1777172727 | 26.11° C | 73% | 1008 hPa | 0 mm | - | 0 W/m² | - |
| 1777171543 | 26.67° C | 71% | 1007.2 hPa | 0 mm | - | 0 W/m² | - |
| 1777170327 | 26.67° C | 70% | 1006.5 hPa | 0 mm | - | 0 W/m² | - |
* Rain latest hour (hover to see other rain measurements)
** Current wind speed in m/s (hover to see current wind gust speed)